Dewpoint
52 47 49 52 54 55 53 50 42 47 45 36 32 31 27 27 34 33 31 33 33 40 40 43 46 48 48 48 52 55 55 53 55 53 54 61 64 63 64 66 67 67 67 68 68 68 68 69 69 67 66 65 65 65 65 66 66 66 66 68 69 69 69 68 68 67 67 68 68 69 68 68 69 68 68 68 68 68 68 68 68 67 66 66 66 66 66 66 66 66 66 65 66 65 64 64 63
46 46 49 53 55 56 49 48 46 40 39 34 29 25 25 29 30 30 31 42 43 42 43 44 47 47 47 49 53 53 56 57 58 60 62 62 63 62 65 66 67 67 67 68 68 68 68 68 69 67 66 65 65 65 65 65 65 66 68 69 68 68 68 68 68 68 68 69 69 69 69 69 69 69 68 68 67 67 67 67 67 66 66 65 65 65 65 64 64 65 65 65 64 63 63 62 61
48 47 51 54 54 52 48 47 40 36 32 33 30 23 32 29 28 27 38 43 43 43 45 46 47 50 47 46 51 53 54 58 59 61 61 65 60 61 64 66 67 67 67 67 67 67 68 68 69 68 65 65 65 65 66 66 66 68 68 68 68 68 68 68 68 67 68 68 68 69 69 68 68 68 67 67 67 67 66 65 65 65 65 64 64 65 65 65 64 63 64 64 64 63 63 62 60
53 50 51 54 52 54 47 43 39 35 32 28 27 26 29 29 27 38 42 44 44 46 44 43 46 49 52 50 52 56 56 57 59 60 61 61 59 61 64 66 67 66 66 66 66 66 67 68 68 68 66 65 65 65 65 67 69 68 68 68 68 68 68 67 68 68 68 67 68 68 68 69 68 67 67 67 67 66 66 64 64 64 64 63 63 63 63 63 63 63 63 63 62 62 62 61 59
49 49 52 53 53 49 49 43 38 36 33 32 28 30 28 28 35 39 43 43 42 44 46 47 49 53 55 55 56 53 55 58 59 60 60 61 61 62 64 66 66 65 65 65 65 66 66 68 68 68 66 65 65 65 66 68 69 68 68 68 67 68 68 68 68 68 68 68 69 69 68 68 67 67 67 66 66 66 66 64 63 63 62 62 62 62 62 61 61 61 62 62 61 61 60 59 59
37 45 54 54 51 51 46 42 38 35 36 33 28 31 30 31 35 37 42 44 44 44 47 47 47 47 53 56 57 55 58 55 58 59 61 59 61 63 64 66 66 66 65 65 65 65 66 68 68 67 66 65 65 65 68 68 68 68 68 67 68 68 68 69 69 68 68 68 68 68 68 68 67 66 66 66 66 65 65 64 63 62 62 62 61 60 60 60 61 60 59 59 58 58 58 58 59
44 53 53 53 49 50 44 40 39 37 35 35 34 31 33 34 35 38 40 43 45 45 46 47 50 52 52 55 57 58 60 58 57 59 60 60 62 64 65 66 66 65 66 65 64 65 66 67 67 67 67 65 65 66 68 68 68 68 68 68 68 68 68 68 69 68 68 68 68 68 68 67 67 66 66 66 65 65 64 64 63 63 62 61 61 60 59 60 59 60 59 58 58 58 57 57 57
51 52 52 46 45 45 42 41 40 38 37 35 35 34 34 36 36 36 40 40 42 42 44 49 50 49 52 54 54 58 60 59 59 61 60 60 62 64 65 66 66 66 65 64 64 65 68 67 67 67 67 67 66 66 68 68 68 68 68 68 68 68 68 68 69 68 68 68 67 67 67 67 67 66 66 66 65 64 64 64 63 63 62 62 61 60 59 59 59 60 59 59 60 60 61 60 58
47 50 51 47 40 44 40 39 39 39 38 37 35 39 44 36 36 36 38 39 41 43 42 46 49 46 52 57 57 58 59 60 61 62 60 61 63 64 65 65 65 66 65 64 64 66 67 67 67 67 67 67 68 68 68 68 68 68 68 68 68 68 68 68 68 68 68 68 68 67 67 67 68 67 66 66 66 66 65 65 64 63 63 62 61 60 59 58 59 59 58 57 57 58 59 60 59
44 46 41 44 46 39 38 38 38 38 37 37 36 35 33 34 33 36 35 36 41 42 43 46 48 47 55 55 57 58 59 62 62 61 61 61 63 64 65 66 66 66 65 64 64 65 67 69 67 67 67 68 68 68 68 68 67 67 67 68 68 68 68 68 68 68 68 68 68 68 67 67 67 67 67 67 66 66 65 64 63 64 64 64 63 61 60 60 59 60 61 59 58 58 58 58 59
43 38 42 38 35 34 36 35 37 37 36 36 35 37 37 32 32 34 35 36 40 40 47 46 45 51 54 58 59 61 62 62 62 61 61 62 63 64 65 66 66 66 65 65 65 66 66 67 68 67 68 68 68 68 68 68 68 67 67 67 67 67 67 67 67 68 68 68 67 68 67 67 67 66 66 66 66 65 63 62 62 62 62 61 62 61 61 60 60 60 61 59 58 58 58 59 59
46 38 37 30 32 32 28 29 31 34 35 34 34 35 36 33 34 33 35 35 40 41 47 45 45 51 54 56 58 60 62 62 62 61 61 62 62 65 65 65 66 66 66 66 65 65 66 67 67 68 67 67 67 67 67 67 68 67 66 67 67 67 67 67 67 66 67 67 66 66 66 67 67 67 67 66 66 66 63 62 62 61 61 61 60 60 60 60 60 60 60 61 59 59 59 60 59
43 43 33 26 23 29 31 27 26 30 32 33 33 35 38 35 34 34 34 35 36 37 44 45 50 50 52 55 59 61 61 61 62 61 61 61 63 65 66 66 66 66 66 65 64 64 65 65 67 67 67 66 66 66 67 67 67 67 67 67 66 66 66 66 66 66 65 65 65 65 66 67 67 67 66 65 65 65 65 66 64 62 62 62 61 61 61 60 60 61 62 62 62 61 62 61 60
37 39 38 30 26 19 21 26 27 25 27 30 33 36 39 36 36 34 33 34 42 42 53 51 51 57 56 57 58 60 61 62 61 62 61 62 64 66 66 67 66 66 65 64 64 64 63 64 65 67 67 67 66 66 66 66 67 67 67 67 66 66 66 67 67 66 65 66 66 67 67 67 66 64 64 65 65 65 65 65 65 65 64 64 64 64 64 64 63 64 64 64 64 64 64 64 64
50 40 33 33 28 25 19 15 18 23 25 27 28 36 37 38 37 34 34 38 50 53 53 55 55 51 54 53 56 58 61 63 61 62 63 64 65 66 66 66 66 66 64 63 63 62 62 62 65 66 66 66 66 66 66 66 66 67 67 67 67 67 67 67 67 67 67 67 66 66 66 67 67 66 66 65 65 64 65 64 64 64 65 64 64 65 64 64 65 65 65 65 65 64 65 65 65
47 43 38 32 28 27 25 16 13 13 19 24 29 37 38 40 41 39 43 50 50 51 52 53 57 55 55 55 55 59 61 62 63 63 63 65 66 66 67 68 68 65 63 62 62 61 62 62 64 65 65 65 64 65 66 66 66 66 66 66 65 65 65 65 65 66 66 65 64 64 64 64 64 64 64 64 64 63 63 63 64 64 65 65 65 65 65 65 65 65 65 65 65 65 65 65 65
46 46 39 36 33 32 29 21 14 11 13 23 31 34 38 40 45 50 48 49 50 54 55 55 54 53 52 52 53 60 62 63 62 63 65 65 66 66 64 65 66 66 67 62 61 61 62 62 62 63 63 63 63 64 65 66 66 65 64 64 64 64 64 64 63 63 63 62 62 62 63 62 62 62 63 62 63 62 62 62 63 63 64 65 65 65 65 65 65 65 65 65 64 64 66 66 65
47 38 38 36 31 28 26 19 16 18 14 20 30 37 38 41 45 49 49 45 52 54 54 55 54 53 51 49 52 55 64 64 65 65 65 65 64 64 65 65 64 64 66 65 60 60 61 61 61 60 61 61 62 63 65 67 66 65 64 64 64 63 63 62 62 62 64 62 61 62 63 62 61 61 62 64 63 63 62 61 61 62 63 64 65 66 66 64 64 64 65 65 65 66 64 63 62
40 35 31 27 25 21 12 9 17 10 21 23 22 38 38 40 45 47 44 43 50 52 54 55 55 51 49 49 51 53 61 64 64 63 63 63 64 64 64 65 63 64 65 66 60 59 59 59 60 59 59 60 61 62 64 65 65 64 63 64 64 63 64 64 64 65 65 65 64 63 63 64 65 65 65 66 65 61 62 61 61 62 63 63 64 65 66 65 65 65 65 65 65 66 63 62 63
35 35 24 18 16 14 20 13 27 45 41 44 31 42 36 46 40 45 42 47 46 44 51 48 48 48 46 47 49 51 54 57 59 58 57 56 57 57 58 59 60 61 64 65 60 60 57 57 58 58 59 60 61 63 64 63 64 66 66 65 64 64 63 61 61 61 62 63 65 65 65 65 65 65 65 66 66 66 65 62 61 62 63 63 62 65 65 65 65 65 65 65 64 64 63 62 62
34 30 30 24 15 12 11 14 48 50 47 45 43 43 42 44 42 43 43 48 44 42 42 42 43 43 45 45 48 49 48 48 51 53 52 52 52 52 54 57 58 58 60 63 65 60 58 57 58 59 60 61 62 63 64 65 65 65 63 61 59 59 59 58 58 58 57 58 62 65 66 65 65 63 63 64 64 66 65 64 63 63 63 63 61 64 64 64 65 65 64 64 63 62 62 62 62
37 21 20 22 23 22 28 36 47 46 47 43 42 38 46 47 41 39 40 49 45 43 41 42 42 42 42 43 45 47 45 43 44 48 48 48 48 48 49 51 57 58 59 61 62 62 64 64 59 60 60 63 65 64 64 62 61 60 58 56 55 55 56 55 55 55 54 53 57 63 64 64 60 58 58 61 60 58 57 57 56 55 54 54 54 56 56 58 61 61 61 62 62 62 62 62 62
31 30 28 28 26 24 30 36 47 46 46 46 46 49 48 45 42 40 39 40 41 43 43 42 42 41 41 42 42 43 43 42 41 43 45 46 46 47 47 47 51 55 55 56 59 59 61 64 65 65 64 63 62 61 59 56 55 54 54 53 52 51 52 51 51 52 52 50 50 51 56 55 54 52 51 51 51 51 50 49 48 48 48 49 50 50 52 54 57 60 60 61 61 61 61 59 59
37 37 34 23 22 24 26 31 43 43 46 47 50 51 49 49 44 41 39 39 40 41 42 43 43 43 41 40 40 40 40 40 40 41 42 44 44 45 46 46 46 53 53 52 54 54 54 63 65 64 62 60 59 57 56 54 52 51 51 50 50 51 48 48 48 49 50 51 48 46 51 50 49 48 48 47 47 47 47 47 46 45 45 45 47 47 47 50 50 51 54 58 58 57 53 47 45
30 30 32 28 22 30 39 37 39 43 44 47 50 47 45 46 44 41 39 41 41 41 42 42 43 43 42 41 39 39 39 37 38 39 40 42 43 44 44 46 45 49 50 50 51 52 50 53 59 62 60 57 56 55 53 52 50 49 49 48 48 51 47 45 45 45 46 50 48 43 46 46 46 45 45 45 45 44 44 45 45 44 43 43 45 44 44 45 46 47 49 49 45 44 42 40 42
29 24 30 25 24 24 36 40 39 38 41 44 49 47 45 45 44 40 40 41 42 41 41 41 42 41 41 40 40 39 38 37 35 37 37 38 40 41 42 44 46 45 49 49 49 51 48 49 50 50 54 52 51 52 51 50 48 46 46 45 45 45 44 43 41 40 41 45 47 41 42 45 45 44 44 43 43 41 41 41 41 41 40 40 41 42 43 44 44 45 47 43 39 41 37 38 40
27 31 32 30 31 34 37 37 39 42 39 40 43 47 46 47 48 41 40 41 41 40 39 39 39 39 39 39 39 39 38 38 36 35 35 35 36 39 40 42 44 46 47 47 48 48 47 45 49 48 49 49 48 46 45 46 46 45 44 42 42 42 41 40 39 38 38 38 39 40 40 41 42 41 41 41 39 39 38 36 36 37 36 37 38 40 41 42 41 42 43 41 35 38 37 36 38
29 28 28 29 31 32 32 34 36 37 38 38 44 48 47 48 44 39 40 40 41 40 39 39 37 36 37 38 37 37 39 39 37 36 35 33 34 36 39 39 43 45 47 46 48 47 44 43 46 46 45 46 45 43 43 42 42 42 40 39 38 39 39 37 37 37 37 37 38 39 39 39 40 39 38 38 37 37 36 36 36 36 35 35 37 38 39 40 39 39 39 41 35 36 36 35 37
34 32 27 24 22 25 28 31 34 35 33 40 45 46 44 44 42 40 40 41 40 40 39 38 37 36 36 37 36 35 36 38 38 37 36 35 34 35 36 38 42 43 46 47 47 46 44 43 44 43 44 42 42 41 40 40 37 37 37 36 36 39 35 35 35 35 34 35 36 37 38 39 38 39 38 37 36 36 36 36 35 36 35 35 36 37 37 38 38 36 36 36 33 33 34 35 39
34 31 29 25 21 15 17 28 33 31 28 37 44 37 40 41 39 39 40 40 40 39 37 36 36 36 36 36 36 35 35 35 36 38 37 37 37 36 35 37 39 43 45 46 45 44 44 43 43 44 43 42 41 39 39 38 36 35 34 32 34 32 31 32 34 33 34 33 34 36 37 38 38 38 38 36 35 34 34 34 34 35 35 35 36 36 36 36 37 35 36 34 33 32 34 35 36
28 30 28 20 16 11 15 19 30 30 32 36 44 34 33 37 38 39 40 40 40 37 37 36 37 36 35 35 35 35 35 35 36 37 37 39 39 38 37 37 38 42 44 45 44 43 43 40 40 42 39 38 37 36 36 37 37 33 31 30 30 31 30 30 30 31 32 32 32 33 36 37 37 37 37 36 34 33 32 32 33 33 35 35 35 35 35 35 35 33 34 31 30 31 34 35 34
26 24 20 24 22 20 16 13 25 27 31 35 43 37 33 36 36 38 39 40 39 35 36 36 36 36 36 35 35 35 34 34 35 36 37 38 39 39 39 38 39 40 42 42 44 43 43 43 37 36 36 30 31 32 32 33 34 35 36 33 28 29 28 28 28 30 31 31 31 32 34 36 36 36 34 34 33 32 31 31 31 32 34 34 34 33 33 34 35 35 32 32 29 30 33 30 28
21 21 21 19 19 19 19 14 17 28 44 45 38 35 35 34 35 37 38 38 39 34 35 35 36 36 36 35 35 34 35 34 34 34 36 37 37 39 40 40 39 40 41 42 40 42 43 41 35 34 34 35 27 27 30 31 33 34 36 36 35 28 26 27 28 28 30 30 31 31 33 34 34 35 33 32 31 31 31 30 30 31 32 32 32 31 31 34 34 37 31 33 30 29 29 26 24
13 20 17 20 17 17 14 13 26 30 40 39 42 37 31 33 34 36 36 37 38 33 34 34 33 33 35 35 35 34 33 33 33 33 35 36 38 38 39 40 40 40 40 42 42 41 40 39 36 33 33 34 35 30 25 27 28 30 36 39 39 37 27 25 26 27 28 30 30 30 32 33 34 33 32 31 30 31 30 30 29 30 30 30 30 30 30 32 32 33 31 31 31 27 26 23 23
13 16 15 18 16 15 15 20 37 37 29 35 36 38 31 31 33 33 35 36 36 35 33 31 32 33 34 34 34 34 33 32 32 33 34 35 36 37 38 39 39 39 40 41 42 42 43 42 40 36 32 32 34 35 37 24 24 25 27 35 39 38 25 24 25 26 28 28 28 29 30 31 33 32 32 31 28 28 28 29 29 28 28 29 28 28 29 31 31 31 32 30 33 28 25 23 23
19 20 19 17 18 13 15 36 34 36 36 34 32 33 31 31 31 32 32 33 34 34 33 32 32 32 32 33 33 33 34 33 32 33 34 35 35 36 37 38 38 38 40 40 40 41 41 40 41 37 36 34 34 36 37 37 36 22 22 24 34 38 30 26 23 24 25 26 28 27 28 28 31 32 31 30 28 27 27 28 28 29 28 28 28 27 28 29 30 30 31 32 31 30 24 23 24
19 19 18 17 15 20 33 33 36 36 33 30 31 31 30 29 29 29 31 31 32 33 32 32 32 33 32 33 31 31 31 33 34 34 34 35 35 35 36 37 38 38 38 39 39 39 40 40 39 38 34 32 34 34 35 39 38 36 35 21 21 23 22 22 23 24 24 25 26 26 26 26 28 30 31 30 27 28 26 27 27 27 27 27 28 27 28 29 30 30 31 32 31 28 23 23 24
23 17 14 12 13 16 30 31 33 36 32 29 30 29 28 29 29 29 29 30 31 32 31 31 31 32 32 32 32 30 30 32 33 34 34 35 35 35 35 36 37 36 37 37 37 38 39 39 38 38 39 36 31 33 33 31 29 35 37 35 35 20 19 20 21 21 22 26 25 25 25 25 27 27 30 29 28 25 25 26 25 25 26 25 26 27 28 31 28 29 29 30 32 29 25 24 26
20 15 14 14 16 16 21 32 35 34 31 30 29 27 27 28 28 29 28 29 30 31 31 31 31 30 33 30 30 30 30 31 31 32 34 35 35 35 35 35 35 35 36 36 36 36 37 38 39 38 38 38 39 36 35 36 37 35 31 30 34 28 18 18 18 20 20 20 21 23 24 25 27 27 28 30 29 27 26 24 24 24 24 27 23 24 25 26 26 27 27 28 30 29 27 28 25
18 15 10 7 13 15 13 32 32 32 31 28 29 26 27 24 25 27 28 29 28 30 31 31 33 30 30 29 30 30 30 30 31 31 32 33 35 34 35 35 35 35 35 36 37 35 36 38 37 38 38 38 38 38 37 34 33 37 37 37 36 27 18 18 17 17 17 18 19 20 21 22 23 24 26 27 27 27 24 23 22 23 23 25 24 22 23 24 25 25 26 26 27 26 23 23 27
18 18 14 10 12 15 19 25 30 29 31 28 28 26 27 25 22 22 26 28 29 29 30 29 30 33 32 31 31 30 30 30 30 30 31 32 33 33 34 34 35 34 34 35 34 35 36 36 36 37 38 38 38 39 40 39 38 37 36 33 38 33 32 19 17 15 16 18 18 19 19 21 24 24 23 25 27 23 25 23 22 21 22 22 23 22 22 23 24 24 25 25 23 24 24 22 24
12 16 17 16 16 20 23 27 26 22 22 30 28 18 17 25 25 26 26 25 26 27 28 28 29 30 32 30 29 30 30 30 30 30 30 31 32 33 34 34 34 34 34 34 35 35 36 37 37 37 38 37 38 38 38 39 40 40 39 37 35 34 31 20 15 13 14 14 15 17 18 19 20 21 24 26 23 24 22 23 22 20 21 22 24 22 21 22 23 23 23 24 23 22 23 21 21
12 11 20 18 18 16 23 23 21 16 15 22 29 18 11 24 23 23 24 24 24 26 27 28 28 29 30 31 30 30 29 30 31 30 30 30 30 31 32 33 33 33 33 34 35 35 35 36 36 36 37 38 38 38 38 39 37 36 35 34 22 17 19 18 14 14 14 13 14 14 16 18 19 18 19 21 22 22 21 21 21 20 20 21 24 21 20 20 22 23 23 22 23 24 21 21 21
14 27 27 25 23 20 21 22 22 20 22 28 29 26 19 17 21 23 23 23 24 24 25 27 28 28 29 30 30 30 30 31 31 30 30 30 30 30 31 31 32 33 32 33 33 34 34 34 35 35 36 36 36 37 37 38 37 36 34 33 34 31 17 14 14 13 13 13 12 12 14 15 17 18 18 18 20 22 20 19 19 19 19 21 23 20 19 20 22 23 23 21 22 23 21 21 21
17 28 28 25 24 23 21 21 21 21 16 15 25 26 22 21 24 26 24 23 25 25 25 26 27 28 29 30 31 30 31 31 30 30 29 29 29 29 30 30 31 31 32 32 32 33 33 34 34 34 35 35 36 35 37 37 37 36 35 34 32 32 25 20 18 18 18 18 15 13 12 12 14 16 17 17 18 19 19 19 18 18 19 19 22 21 20 19 19 21 20 20 21 22 22 22 21
23 23 29 28 26 26 24 22 21 18 16 14 15 26 20 19 26 23 26 26 25 24 25 26 27 28 28 29 30 29 30 31 30 30 29 29 29 29 29 29 30 30 31 30 32 32 32 32 33 33 33 34 34 34 35 36 35 35 34 32 31 33 34 32 22 20 22 18 17 16 14 14 14 16 15 15 16 16 18 18 18 16 17 19 22 19 20 19 18 20 20 20 20 21 21 21 23
26 27 24 23 23 23 22 24 19 17 14 15 17 23 23 16 21 25 24 24 26 27 27 26 27 28 28 28 28 29 29 29 30 29 29 29 29 29 28 28 28 29 30 30 30 30 30 31 32 31 32 33 33 33 34 34 36 31 29 31 29 29 31 32 33 33 28 23 20 20 21 19 16 15 15 15 15 15 15 17 16 16 18 20 20 18 18 19 17 17 19 18 19 21 22 20 22
27 22 21 19 20 19 17 17 18 16 13 15 18 19 25 16 17 26 26 26 26 27 27 27 27 27 28 27 28 30 29 30 30 30 29 29 29 28 27 27 27 28 29 29 29 30 30 30 30 30 31 32 33 33 33 34 34 33 34 31 30 32 32 32 32 32 32 31 32 32 33 32 31 31 19 14 14 14 15 15 16 16 18 17 17 17 18 18 18 17 18 19 19 21 22 23 21
26 20 20 15 9 12 9 12 9 13 11 13 17 18 20 22 22 22 27 27 26 27 28 28 27 28 28 28 29 31 31 31 31 31 29 29 28 28 26 26 27 27 28 28 29 29 29 29 29 29 29 31 32 32 31 31 32 34 33 33 33 31 31 31 32 32 33 32 32 32 31 28 18 14 13 13 13 13 15 15 15 16 16 17 18 18 18 19 18 17 18 18 20 21 22 22 21
23 21 18 13 8 6 3 5 6 7 11 16 15 21 17 20 23 25 24 25 27 28 29 30 28 28 28 28 29 31 31 31 30 30 28 28 28 27 26 26 26 27 27 27 28 28 29 29 29 29 29 30 30 31 31 31 31 32 33 33 33 33 32 33 33 31 32 32 31 29 24 14 12 12 13 13 15 15 16 16 15 15 16 16 17 18 18 19 19 17 17 19 20 20 22 22 21
22 21 19 16 9 3 0 3 2 3 8 8 18 18 16 17 19 25 25 26 25 28 29 30 29 29 29 29 29 29 30 30 29 28 28 28 27 27 27 26 26 26 26 26 26 26 27 28 28 27 28 29 30 30 30 30 31 31 32 33 33 33 32 32 31 31 31 26 17 13 11 12 12 12 13 14 16 16 16 15 15 15 16 16 16 16 19 17 18 17 19 19 22 21 21 23 20
25 23 21 17 17 18 13 13 15 14 16 15 19 19 21 22 27 30 28 28 28 29 31 31 29 29 28 28 28 28 29 29 29 28 27 27 27 27 27 26 26 26 25 24 24 24 25 25 24 24 26 27 29 29 29 30 31 32 29 30 31 31 32 27 22 17 17 16 12 11 10 11 13 13 14 15 16 17 17 15 14 14 15 15 15 16 16 16 18 17 17 18 18 24 21 20 19
20 22 18 19 27 23 21 18 19 22 21 17 24 22 24 24 26 27 27 27 27 29 30 30 29 29 28 27 28 28 28 28 28 28 27 27 27 26 26 26 24 24 23 22 21 21 21 21 20 20 21 22 24 24 25 25 27 29 29 29 29 25 16 13 14 12 12 12 12 11 11 12 13 15 19 17 17 16 15 15 13 13 14 15 14 15 16 16 17 15 17 18 18 19 22 20 19
25 19 21 29 30 26 20 14 17 18 14 13 23 21 21 22 18 27 26 26 27 28 28 29 28 28 27 27 28 28 28 28 28 28 27 27 26 26 24 22 21 21 20 20 19 19 18 17 16 16 17 17 18 18 19 18 18 18 18 18 16 16 14 13 14 12 12 12 12 13 13 15 15 17 18 19 15 15 15 16 14 14 14 14 14 14 14 15 16 15 17 18 20 20 20 20 21
27 26 32 25 19 17 23 20 12 12 13 15 22 23 20 21 20 23 24 25 26 27 28 27 27 27 27 27 27 27 28 28 28 27 26 26 25 23 21 19 19 19 20 19 19 18 17 15 15 14 14 14 14 15 14 15 15 17 17 14 13 14 13 13 14 12 12 12 11 12 13 14 14 16 15 14 14 14 14 14 13 13 13 13 13 14 15 15 15 15 18 18 20 20 18 18 18
33 33 29 32 29 24 20 19 22 22 16 18 16 23 20 25 22 25 24 25 26 27 27 27 27 27 27 27 27 27 27 27 27 26 25 25 23 21 19 19 18 19 19 20 19 18 16 15 14 13 14 14 14 14 15 14 16 16 15 13 13 13 13 14 13 12 12 13 13 14 13 12 13 15 14 14 13 13 14 13 13 13 13 12 12 13 14 14 15 16 18 19 19 19 18 18 18
28 28 25 29 28 31 28 28 25 21 20 19 19 17 21 23 22 23 25 25 25 26 27 27 27 27 27 27 26 27 27 27 27 25 24 24 22 20 20 19 20 20 18 18 18 16 15 16 13 13 12 12 13 13 14 15 15 13 12 11 12 13 12 13 13 12 12 12 13 14 13 13 14 13 13 13 13 12 12 13 13 14 12 12 12 13 13 13 15 16 18 20 19 19 19 18 20
28 26 24 26 26 24 21 18 28 26 23 20 19 17 21 24 20 22 22 25 26 27 27 27 27 27 27 27 27 26 27 27 26 25 24 23 22 20 18 18 20 17 18 17 17 16 15 14 14 12 12 13 12 14 15 15 14 13 11 11 11 13 13 12 11 12 12 13 13 13 13 13 12 13 12 13 13 14 13 13 11 11 11 12 12 11 13 13 16 16 17 20 20 19 18 18 18